Location: Unspecified
(0.0000°N, 0.0000°E)
Time: 18:05:06
(UTC+00:00)

SRMSAT - Pass Details

Date: 18 July 2019
Orbit: 848 x 865 km, 20.0° (Epoch: 07 December)

Event Time Altitude Azimuth Distance (km) Brightness Sun altitude
Exits shadow 03:42:24 19° 352° (N) 1,877 ? -33.2°
Maximum altitude 03:44:09 22° 16° (NNE) 1,751 ? -32.8°
Drops below altitude 10° 03:48:39 10° 66° (ENE) 2,456 ? -31.8°
Sets 03:51:46 0° 81° (E) 3,392 ? -31.1°
